, CA

(GMT )
Point Mugu

Weather History for KNTD - January, 2012

Change the Weather History Date:

Wednesday, January 25, 2012

  Actual Average Record
Temperature  
Mean Temperature 64 °F -  
Max Temperature 80 °F 61 °F 82 °F (2015)
Min Temperature 48 °F 43 °F 35 °F (2007)
Degree Days  
Heating Degree Days 1    
Growing Degree Days 14 (Base 50)    
Moisture  
Dew Point 44 °F    
Average Humidity 58    
Maximum Humidity 81    
Minimum Humidity 25    
Precipitation  
Precipitation 0.00 in - - ()
Sea Level Pressure  
Sea Level Pressure 30.17 in    
Wind  
Wind Speed 7 mph (NNW)    
Max Wind Speed 13 mph    
Max Gust Speed 18 mph    
Visibility 7 miles    
Events      
Averages and records for this station are not official NWS values.
T = Trace of Precipitation, MM = Missing Value Source: NWS Daily Summary

Daily Weather History Graph

Daily Weather History Graph

Search for Another Location

Airport or City:

Trip Planner

Search our weather history database for the weather conditions in past years. The results will help you decide how hot, cold, wet, or windy it might be!

Date:

Astronomy

Jan. 25, 2012 Rise Set
Actual Time 6:58 AM PST 5:19 PM PST
Civil Twilight 6:31 AM PST 5:46 PM PST
Nautical Twilight 6:01 AM PST 6:16 PM PST
Astronomical Twilight 5:31 AM PST 6:46 PM PST
Moon 8:09 AM PST (1/25) 8:06 PM PST (1/25)
Length of Visible Light 11h 14m
Length of Day
10h 21m
Waxing Crescent, 7% of the Moon is Illuminated
Jan 25
Waxing Crescent
Jan 30
First Quarter
Feb 7
Full
Feb 14
Last Quarter
Feb 21
New

Hourly Weather History & Observations

Time (PST) Temp. Dew Point Humidity Pressure Visibility Wind Dir Wind Speed Gust Speed Precip Events Conditions
12:54 AM 53.1 °F 39.9 °F 61% 30.23 in - North 8.1 mph - N/A   Clear
1:54 AM 50.0 °F 41.0 °F 71% 30.24 in - West 5.8 mph - N/A   Clear
2:54 AM 48.0 °F 41.0 °F 77% 30.23 in - NNW 4.6 mph - N/A   Clear
3:54 AM 50.0 °F 39.9 °F 68% 30.21 in - North 4.6 mph - N/A   Clear
4:54 AM 52.0 °F 39.0 °F 61% 30.21 in - NNW 9.2 mph - N/A   Clear
5:54 AM 48.9 °F 39.9 °F 71% 30.21 in 7.0 mi North 5.8 mph - N/A   Scattered Clouds
6:54 AM 48.0 °F 39.9 °F 74% 30.22 in 7.0 mi North 4.6 mph - N/A   Scattered Clouds
7:54 AM 51.1 °F 41.0 °F 68% 30.22 in 7.0 mi North 4.6 mph - N/A   Scattered Clouds
8:54 AM 60.1 °F 44.1 °F 55% 30.22 in 7.0 mi NNE 9.2 mph - N/A   Scattered Clouds
9:54 AM 70.0 °F 46.9 °F 44% 30.22 in 7.0 mi North 6.9 mph - N/A   Partly Cloudy
10:54 AM 78.1 °F 39.9 °F 25% 30.22 in 7.0 mi NE 9.2 mph - N/A   Partly Cloudy
11:54 AM 68.0 °F 54.0 °F 61% 30.19 in 7.0 mi West 11.5 mph - N/A   Partly Cloudy
12:54 PM 80.1 °F 41.0 °F 25% 30.16 in 7.0 mi NE 9.2 mph - N/A   Clear
1:51 PM 71.6 °F 46.4 °F 41% 30.14 in 7.0 mi WNW 11.5 mph - N/A   Clear
1:54 PM 72.0 °F 46.9 °F 41% 30.15 in 7.0 mi WNW 11.5 mph - N/A   Clear
2:54 PM 71.1 °F 45.0 °F 39% 30.13 in 7.0 mi WNW 12.7 mph 18.4 mph N/A   Clear
3:54 PM 72.0 °F 45.0 °F 38% 30.13 in 7.0 mi NNW 4.6 mph - N/A   Clear
4:54 PM 66.0 °F 48.0 °F 52% 30.13 in 7.0 mi Calm Calm - N/A   Clear
5:54 PM 61.0 °F 48.0 °F 62% 30.13 in 7.0 mi Calm Calm - N/A   Clear
6:54 PM 57.9 °F 50.0 °F 75% 30.13 in 7.0 mi NW 5.8 mph - N/A   Clear
7:54 PM 57.0 °F 51.1 °F 81% 30.13 in 7.0 mi NNW 6.9 mph - N/A   Clear
8:54 PM 59.0 °F 46.9 °F 64% 30.12 in 7.0 mi North 8.1 mph - N/A   Clear
9:54 PM 59.0 °F 45.0 °F 60% 30.13 in 7.0 mi NNW 8.1 mph - N/A   Clear
10:54 PM 57.0 °F 45.0 °F 64% 30.13 in 7.0 mi NNW 8.1 mph - N/A   Clear
11:54 PM 55.9 °F 45.0 °F 67% 30.13 in - NW 3.5 mph - N/A   Clear